TimeCET,TemperatureF,Dew PointF,Humidity,Sea Level PressureIn,VisibilityMPH,Wind Direction,Wind SpeedMPH,Gust SpeedMPH,PrecipitationIn,Events,Conditions,WindDirDegrees,DateUTC
12:00 AM,23.0,15.8,74,30.01,6.2,ENE,9.2,-,N/A,Snow,Light Snow,70,2013-03-22 23:00:00
1:00 AM,23.0,15.8,74,30.01,6.2,ENE,9.2,-,N/A,Snow,Light Snow,70,2013-03-23 00:00:00
2:00 AM,23.0,17.6,80,29.98,6.2,ENE,8.1,-,N/A,Snow,Light Snow,60,2013-03-23 01:00:00
3:00 AM,21.2,17.6,86,29.98,6.2,ENE,9.2,-,N/A,,Overcast,60,2013-03-23 02:00:00
4:00 AM,21.2,17.6,86,29.98,6.2,ENE,10.4,-,N/A,,Overcast,60,2013-03-23 03:00:00
5:00 AM,21.2,17.6,86,29.98,6.2,ENE,9.2,-,N/A,Snow,Light Snow,70,2013-03-23 04:00:00
6:00 AM,21.2,17.6,86,30.01,3.1,ENE,11.5,-,N/A,,Overcast,70,2013-03-23 05:00:00
7:00 AM,19.4,15.8,86,30.01,3.7,ENE,11.5,-,N/A,Snow,Light Snow,70,2013-03-23 06:00:00
7:30 AM,19.4,15.8,86,30.01,3.7,ENE,10.4,-,N/A,Snow,Light Snow,70,2013-03-23 06:30:00
7:47 AM,19.4,15.8,86,30.01,2.5,ENE,9.2,-,N/A,Snow,Light Snow,70,2013-03-23 06:47:00
8:00 AM,19.4,15.8,86,30.01,2.5,ENE,10.4,-,N/A,Snow,Light Snow,70,2013-03-23 07:00:00
8:30 AM,19.4,15.8,86,30.01,2.5,ENE,9.2,-,N/A,Snow,Light Snow,60,2013-03-23 07:30:00
9:00 AM,19.4,15.8,86,30.01,2.5,ENE,9.2,-,N/A,Snow,Light Snow,60,2013-03-23 08:00:00
9:30 AM,21.2,15.8,80,30.04,2.5,ENE,10.4,-,N/A,Snow,Light Snow,60,2013-03-23 08:30:00
10:00 AM,21.2,15.8,80,30.04,2.5,ENE,10.4,-,N/A,Snow,Light Snow Showers,70,2013-03-23 09:00:00
10:30 AM,21.2,15.8,80,30.04,2.8,East,13.8,-,N/A,Snow,Light Snow Showers,80,2013-03-23 09:30:00
11:00 AM,21.2,15.8,80,30.04,3.1,ENE,12.7,-,N/A,Snow,Light Snow Showers,70,2013-03-23 10:00:00
11:30 AM,21.2,15.8,80,30.04,4.3,ENE,15.0,-,N/A,Snow,Light Snow Showers,70,2013-03-23 10:30:00
12:00 PM,21.2,14.0,74,30.04,5.0,ENE,15.0,-,N/A,,Mostly Cloudy,70,2013-03-23 11:00:00
12:30 PM,23.0,15.8,74,30.01,5.6,East,15.0,-,N/A,,Mostly Cloudy,80,2013-03-23 11:30:00
1:00 PM,23.0,14.0,68,30.01,6.2,East,15.0,26.5,N/A,,Mostly Cloudy,80,2013-03-23 12:00:00
1:30 PM,24.8,14.0,64,30.01,6.2,ENE,16.1,-,N/A,,Scattered Clouds,70,2013-03-23 12:30:00
2:00 PM,26.6,15.8,64,30.01,6.2,ENE,16.1,-,N/A,,Scattered Clouds,70,2013-03-23 13:00:00
2:30 PM,26.6,15.8,64,30.01,6.2,ENE,17.3,-,N/A,,Scattered Clouds,70,2013-03-23 13:30:00
3:00 PM,26.6,14.0,59,30.01,6.2,ENE,15.0,-,N/A,,Partly Cloudy,70,2013-03-23 14:00:00
3:30 PM,26.6,14.0,59,30.01,6.2,ENE,13.8,-,N/A,,Partly Cloudy,70,2013-03-23 14:30:00
4:00 PM,26.6,14.0,59,30.01,6.2,ENE,18.4,-,N/A,,Partly Cloudy,70,2013-03-23 15:00:00
4:30 PM,26.6,12.2,55,30.01,6.2,East,16.1,-,N/A,,Partly Cloudy,80,2013-03-23 15:30:00
5:00 PM,24.8,10.4,54,30.01,6.2,East,19.6,-,N/A,,Partly Cloudy,80,2013-03-23 16:00:00
5:30 PM,24.8,12.2,59,30.01,-9999.0,East,15.0,-,N/A,,Clear,80,2013-03-23 16:30:00
6:00 PM,24.8,12.2,59,30.01,6.2,East,17.3,-,N/A,,Partly Cloudy,80,2013-03-23 17:00:00
6:30 PM,23.0,12.2,63,30.01,-9999.0,East,16.1,-,N/A,,Clear,80,2013-03-23 17:30:00
7:00 PM,21.2,12.2,68,30.04,-9999.0,ENE,12.7,-,N/A,,Clear,70,2013-03-23 18:00:00
7:30 PM,21.2,10.4,63,30.04,-9999.0,ENE,15.0,-,N/A,,Clear,70,2013-03-23 18:30:00
8:00 PM,19.4,8.6,63,30.04,-9999.0,ENE,11.5,-,N/A,,Clear,60,2013-03-23 19:00:00
9:00 PM,17.6,6.8,63,30.04,-9999.0,ENE,11.5,-,N/A,,Clear,70,2013-03-23 20:00:00
10:00 PM,17.6,3.2,53,30.04,-9999.0,ENE,15.0,-,N/A,,Clear,70,2013-03-23 21:00:00
11:00 PM,15.8,3.2,58,30.04,-9999.0,ENE,12.7,-,N/A,,Clear,70,2013-03-23 22:00:00